Bluefield, WV

11:31 AM EDT on May 22, 2017 (GMT -0400)
Mercer County

Weather History for KBLF - March, 2013

Change the Weather History Date:

Wednesday, March 6, 2013

  Actual Average Record
Temperature  
Mean Temperature 29 °F 42 °F  
Max Temperature 33 °F 51 °F 70 °F (1961)
Min Temperature 25 °F 33 °F 1 °F (1960)
Degree Days  
Heating Degree Days 36 23  
Month to date heating degree days 211 142  
Since 1 July heating degree days 3613 3635  
Cooling Degree Days 0 0  
Month to date cooling degree days 0 0  
Year to date cooling degree days 1 0  
Moisture  
Dew Point 23 °F    
Average Humidity 82    
Maximum Humidity 85    
Minimum Humidity 78    
Precipitation  
Precipitation 0.14 in 0.11 in 1.55 in (2011)
Month to date precipitation 0.84 0.65  
Year to date precipitation 8.51 6.31  
Snow  
Snow 1.70 in - - ()
Month to date snowfall 3.7  
Since 1 July snowfall 44.8  
Snow Depth 2.00 in    
Sea Level Pressure  
Sea Level Pressure 29.79 in    
Wind  
Wind Speed 13 mph (WNW)    
Max Wind Speed 24 mph    
Max Gust Speed 33 mph    
Visibility 3 miles    
Events Rain , Snow    
T = Trace of Precipitation, MM = Missing Value Source: NWS Daily Summary

Daily Weather History Graph

Daily Weather History Graph

Search for Another Location

Airport or City:

Trip Planner

Search our weather history database for the weather conditions in past years. The results will help you decide how hot, cold, wet, or windy it might be!

Date:

Astronomy

Mar. 06, 2013 Rise Set
Actual Time 6:48 AM EST 6:23 PM EST
Civil Twilight 6:22 AM EST 6:49 PM EST
Nautical Twilight 5:52 AM EST 7:20 PM EST
Astronomical Twilight 5:22 AM EST 7:50 PM EST
Moon 2:51 AM EST (3/6) 1:09 PM EST (3/6)
Length of Visible Light 12h 27m
Length of Day
11h 35m
Waning Crescent, 30% of the Moon is Illuminated
Mar 6
Waning Crescent
Mar 11
New
Mar 19
First Quarter
Mar 27
Full
Apr 3
Last Quarter

Hourly Weather History & Observations

Time (EST) Temp. Windchill Dew Point Humidity Pressure Visibility Wind Dir Wind Speed Gust Speed Precip Events Conditions
12:02 AM 33.8 °F 23.9 °F 28.4 °F 81% 29.61 in 3.0 mi WNW 15.0 mph 26.5 mph 0.00 in Snow Light Snow
12:15 AM 32.0 °F 21.6 °F 28.4 °F 87% 29.61 in 1.8 mi WNW 15.0 mph 25.3 mph 0.00 in Snow Light Snow
12:33 AM 32.0 °F 19.5 °F 26.6 °F 80% 29.61 in 3.0 mi WNW 21.9 mph 28.8 mph 0.01 in Snow Light Snow
12:49 AM 30.2 °F 17.8 °F 26.6 °F 86% 29.61 in 4.0 mi WNW 19.6 mph 26.5 mph 0.01 in Snow Light Snow
12:52 AM 30.9 °F 20.2 °F 25.0 °F 79% 29.63 in 4.0 mi West 15.0 mph 26.5 mph 0.01 in Snow Light Snow
1:13 AM 30.2 °F 18.9 °F 24.8 °F 80% 29.61 in 7.0 mi West 16.1 mph 25.3 mph 0.00 in Snow Light Snow
1:26 AM 30.2 °F 20.8 °F 24.8 °F 80% 29.62 in 7.0 mi WNW 11.5 mph 18.4 mph 0.00 in Snow Light Snow
1:52 AM 30.0 °F 17.9 °F 25.0 °F 82% 29.63 in 2.5 mi WNW 18.4 mph 26.5 mph 0.00 in Snow Light Snow
1:59 AM 30.2 °F 17.8 °F 24.8 °F 80% 29.61 in 3.0 mi West 19.6 mph 26.5 mph 0.00 in Snow Light Snow
2:07 AM 30.2 °F 18.5 °F 24.8 °F 80% 29.60 in 2.5 mi West 17.3 mph 27.6 mph 0.00 in Snow Light Snow
2:18 AM 28.4 °F 16.2 °F 24.8 °F 86% 29.60 in 3.0 mi WNW 17.3 mph 27.6 mph 0.00 in Snow Light Snow
2:27 AM 28.4 °F 17.0 °F 23.0 °F 80% 29.60 in 4.0 mi WNW 15.0 mph 27.6 mph 0.00 in Snow Light Snow
2:37 AM 28.4 °F 17.5 °F 23.0 °F 80% 29.59 in 2.0 mi West 13.8 mph 26.5 mph 0.00 in Snow Light Snow
2:44 AM 28.4 °F 18.5 °F 23.0 °F 80% 29.60 in 2.0 mi WNW 11.5 mph 25.3 mph 0.00 in Snow Light Snow
2:52 AM 28.0 °F 18.1 °F 23.0 °F 81% 29.62 in 2.5 mi WNW 11.5 mph - 0.00 in Snow Light Snow
3:00 AM 28.4 °F 17.5 °F 23.0 °F 80% 29.60 in 3.0 mi WNW 13.8 mph 21.9 mph 0.00 in Snow Light Snow
3:12 AM 28.4 °F 19.1 °F 23.0 °F 80% 29.60 in 2.5 mi WNW 10.4 mph 20.7 mph 0.00 in Snow Light Snow
3:28 AM 28.4 °F 16.2 °F 23.0 °F 80% 29.60 in 1.8 mi WNW 17.3 mph 23.0 mph 0.00 in Snow Light Snow
3:34 AM 28.4 °F 17.5 °F 23.0 °F 80% 29.60 in 2.0 mi West 13.8 mph 21.9 mph 0.00 in Snow Light Snow
3:42 AM 26.6 °F 13.4 °F 21.2 °F 80% 29.60 in 2.0 mi West 18.4 mph 28.8 mph 0.00 in Snow Light Snow
3:50 AM 26.6 °F 13.8 °F 21.2 °F 80% 29.60 in 3.0 mi WNW 17.3 mph 25.3 mph 0.00 in Snow Light Snow
3:52 AM 27.0 °F 15.6 °F 21.9 °F 81% 29.63 in 3.0 mi WNW 13.8 mph 25.3 mph 0.00 in Snow Light Snow
4:01 AM 26.6 °F 15.7 °F 21.2 °F 80% 29.60 in 4.0 mi WNW 12.7 mph 23.0 mph 0.00 in Snow Light Snow
4:23 AM 26.6 °F 15.2 °F 21.2 °F 80% 29.61 in 2.0 mi WNW 13.8 mph 27.6 mph 0.00 in Snow Light Snow
4:52 AM 26.1 °F 15.0 °F 21.0 °F 81% 29.65 in 1.5 mi WNW 12.7 mph 21.9 mph 0.00 in Snow Light Snow
4:59 AM 26.6 °F 17.5 °F 21.2 °F 80% 29.62 in 1.2 mi WNW 9.2 mph - 0.01 in Snow Light Snow
5:10 AM 26.6 °F 16.2 °F 21.2 °F 80% 29.62 in 1.0 mi WNW 11.5 mph 18.4 mph 0.01 in Snow Light Snow
5:33 AM 26.6 °F 18.2 °F 21.2 °F 80% 29.64 in 1.8 mi WNW 8.1 mph - 0.01 in Snow Light Snow
5:49 AM 24.8 °F 11.5 °F 19.4 °F 80% 29.64 in 2.5 mi West 17.3 mph 28.8 mph 0.01 in Snow Light Snow
5:52 AM 25.0 °F 10.9 °F 19.9 °F 81% 29.68 in 3.0 mi West 19.6 mph 29.9 mph 0.01 in Snow Light Snow
6:17 AM 24.8 °F 11.5 °F 19.4 °F 80% 29.65 in 5.0 mi WNW 17.3 mph 28.8 mph 0.00 in Snow Light Snow
6:43 AM 24.8 °F 12.9 °F 19.4 °F 80% 29.66 in 5.0 mi WNW 13.8 mph 24.2 mph 0.00 in Snow Light Snow
6:52 AM 25.0 °F 14.8 °F 19.0 °F 78% 29.70 in 3.0 mi West 10.4 mph 24.2 mph 0.00 in Snow Light Snow
7:00 AM 24.8 °F 15.3 °F 19.4 °F 80% 29.66 in 2.5 mi WNW 9.2 mph 17.3 mph 0.00 in Snow Light Snow
7:09 AM 24.8 °F 13.4 °F 19.4 °F 80% 29.67 in 3.0 mi WNW 12.7 mph 21.9 mph 0.00 in Snow Light Snow
7:22 AM 24.8 °F 14.0 °F 19.4 °F 80% 29.68 in 1.8 mi WNW 11.5 mph 27.6 mph 0.00 in Snow Light Snow
7:36 AM 24.8 °F 14.0 °F 19.4 °F 80% 29.69 in 2.0 mi NW 11.5 mph 21.9 mph 0.00 in Snow Light Snow
7:52 AM 25.0 °F 13.6 °F 19.9 °F 81% 29.75 in 2.0 mi NW 12.7 mph 21.9 mph 0.00 in Snow Light Snow
8:01 AM 24.8 °F 11.5 °F 19.4 °F 80% 29.70 in 1.5 mi West 17.3 mph 24.2 mph 0.00 in Snow Light Snow
8:24 AM 24.8 °F 12.9 °F 19.4 °F 80% 29.72 in 1.0 mi WNW 13.8 mph 24.2 mph 0.00 in Snow Light Snow
8:30 AM 24.8 °F 11.9 °F 19.4 °F 80% 29.72 in 0.8 mi WNW 16.1 mph 20.7 mph 0.00 in Snow Light Snow
8:52 AM 26.1 °F 16.8 °F 21.0 °F 81% 29.79 in 0.8 mi WNW 9.2 mph - 0.00 in Snow Light Snow
8:54 AM 26.6 °F 18.2 °F 21.2 °F 80% 29.74 in 1.0 mi WNW 8.1 mph - 0.00 in Snow Light Snow
9:01 AM 26.6 °F 16.2 °F 21.2 °F 80% 29.75 in 1.0 mi West 11.5 mph - 0.00 in Snow Light Snow
9:03 AM 26.6 °F 15.7 °F 21.2 °F 80% 29.75 in 1.2 mi West 12.7 mph 19.6 mph 0.00 in Snow Light Snow
9:31 AM 26.6 °F 15.7 °F 21.2 °F 80% 29.76 in 2.0 mi WNW 12.7 mph 20.7 mph 0.00 in Snow Light Snow
9:49 AM 26.6 °F 17.5 °F 21.2 °F 80% 29.77 in 3.0 mi WNW 9.2 mph 21.9 mph 0.00 in Snow Light Snow
9:52 AM 27.0 °F 15.6 °F 21.0 °F 78% 29.81 in 3.0 mi West 13.8 mph 19.6 mph 0.00 in Snow Light Snow
10:52 AM 27.0 °F 16.7 °F 21.0 °F 78% 29.86 in 3.0 mi WNW 11.5 mph 20.7 mph 0.00 in Snow Light Snow
11:52 AM 27.0 °F 15.6 °F 21.0 °F 78% 29.89 in 5.0 mi WNW 13.8 mph 24.2 mph 0.00 in Snow Light Snow
12:09 PM 26.6 °F 15.2 °F 21.2 °F 80% 29.85 in 7.0 mi WNW 13.8 mph 21.9 mph 0.00 in Snow Light Snow
12:52 PM 28.0 °F 17.5 °F 21.9 °F 78% 29.91 in 10.0 mi WNW 12.7 mph 24.2 mph 0.00 in   Overcast
1:52 PM 28.0 °F 16.5 °F 23.0 °F 81% 29.94 in 6.0 mi WNW 15.0 mph 23.0 mph 0.00 in   Haze
2:42 PM 28.4 °F 18.0 °F 24.8 °F 86% 29.90 in 2.5 mi WNW 12.7 mph 20.7 mph N/A   Overcast
2:52 PM 28.0 °F 17.0 °F 24.1 °F 85% 29.97 in 1.8 mi WNW 13.8 mph 23.0 mph N/A   Overcast
3:07 PM 28.4 °F 16.6 °F 24.8 °F 86% 29.92 in 1.0 mi WNW 16.1 mph 25.3 mph N/A   Overcast
3:15 PM 28.4 °F 17.5 °F 24.8 °F 86% 29.92 in 0.8 mi WNW 13.8 mph 25.3 mph N/A   Overcast
3:20 PM 28.4 °F 18.0 °F 24.8 °F 86% 29.92 in 1.0 mi NW 12.7 mph 25.3 mph 0.00 in Rain Light Freezing Rain
3:31 PM 28.4 °F 18.0 °F 24.8 °F 86% 29.93 in 1.5 mi WNW 12.7 mph 21.9 mph 0.00 in Rain Light Freezing Rain
3:52 PM 28.0 °F 16.5 °F 24.1 °F 85% 30.02 in 1.5 mi NW 15.0 mph - 0.00 in   Overcast
4:09 PM 28.4 °F 19.1 °F 24.8 °F 86% 29.96 in 1.8 mi NW 10.4 mph 20.7 mph 0.00 in Rain Light Freezing Rain
4:18 PM 28.4 °F 17.5 °F 24.8 °F 86% 29.97 in 2.0 mi NW 13.8 mph 21.9 mph 0.00 in   Overcast
4:35 PM 28.4 °F 16.6 °F 24.8 °F 86% 29.98 in 2.5 mi WNW 16.1 mph 23.0 mph 0.00 in Rain Light Freezing Rain
4:42 PM 28.4 °F 18.0 °F 24.8 °F 86% 29.98 in 3.0 mi NW 12.7 mph 23.0 mph 0.00 in Rain Light Freezing Rain
4:52 PM 28.0 °F 17.5 °F 25.0 °F 88% 30.05 in 3.0 mi NW 12.7 mph 19.6 mph 0.00 in Rain Light Freezing Rain
5:05 PM 28.4 °F 21.2 °F 24.8 °F 86% 29.99 in 4.0 mi NW 6.9 mph 16.1 mph 0.00 in Rain Light Freezing Rain
5:52 PM 28.0 °F 18.6 °F 25.0 °F 88% 30.09 in 5.0 mi WNW 10.4 mph 17.3 mph 0.00 in   Overcast
6:36 PM 28.4 °F 19.1 °F 24.8 °F 86% 30.04 in 5.0 mi WNW 10.4 mph - N/A   Overcast
6:52 PM 28.0 °F 19.3 °F 25.0 °F 88% 30.12 in 4.0 mi WNW 9.2 mph - N/A   Overcast
7:14 PM 28.4 °F 21.2 °F 24.8 °F 86% 30.05 in 2.5 mi WNW 6.9 mph - N/A   Overcast
7:43 PM 28.4 °F 21.2 °F 24.8 °F 86% 30.05 in 1.8 mi WNW 6.9 mph - N/A   Overcast
7:52 PM 28.0 °F 19.3 °F 25.0 °F 88% 30.12 in 2.0 mi NW 9.2 mph 17.3 mph N/A   Overcast
8:36 PM 28.4 °F 21.2 °F 24.8 °F 86% 30.07 in 3.0 mi NW 6.9 mph - N/A   Overcast
8:52 PM 28.0 °F 18.6 °F 25.0 °F 88% 30.14 in 6.0 mi WNW 10.4 mph - N/A   Overcast
9:25 PM 28.4 °F 18.0 °F 24.8 °F 86% 30.08 in 7.0 mi NW 12.7 mph - N/A   Overcast
9:52 PM 28.0 °F 17.5 °F 24.1 °F 85% 30.16 in 6.0 mi NW 12.7 mph 19.6 mph N/A   Overcast
10:52 PM 28.0 °F 17.0 °F 24.1 °F 85% 30.16 in 6.0 mi NW 13.8 mph 19.6 mph N/A   Overcast
11:52 PM 28.0 °F 20.0 °F 24.1 °F 85% 30.15 in 6.0 mi WNW 8.1 mph - N/A   Overcast